Tracking 28531 objects as of 27-Feb-2024
HD Live streaming from Space Station
objects crossing your sky now

ONEWEB-0625

Track ONEWEB-0625 now!
10-day predictions
ONEWEB-0625 is classified as:


NORAD ID: 55166
Int'l Code: 2023-004AC
Perigee: 1,199.3 km
Apogee: 1,202.4 km
Inclination: 87.9 °
Period: 109.3 minutes
Semi major axis: 7571 km
RCS: Unknown
Launch date: January 10, 2023
Source: United Kingdom (UK)
Launch site: AIR FORCE WESTERN TEST RANGE (AFWTR)
Your satellite tracking list
Your tracking list is empty




NASA's NSSDC Master Catalog

Two Line Element Set (TLE):
1 55166U 23004AC  24057.78652052  .00000074  00000-0  15624-3 0  9997
2 55166  87.9260 173.2475 0002058 101.5548 258.5815 13.17649901 56775
Source of the keplerian elements: AFSPC